Terminal Aerodrome Forecast
Issued by NWS

Home | Current Version | Previous Version | Text Only | Print | Product List | Glossary On
Versions: 1 2 3 4 5 6 7 8 9 10 11 12 13 14
000
FTUS46 KLOX 292340
TAFPMD
TAF
KPMD 292340Z 3000/3024 25018G25KT P6SM SKC
     FM300300 25012KT P6SM SKC
     FM301900 25020G28KT P6SM SKC=

USA.gov is the U.S. government's official web portal to all federal, state and local government web resources and services.